Location: Dumpton Point
(51.3500°N, 1.4433°E)
Time: 13:47:51
(UTC+00:00)

H-2A R/B - Pass Details

Date: 09 April 2020
Orbit: 734 x 836 km, 98.2° (Epoch: 02 June)

Event Time Altitude Azimuth Distance (km) Brightness Sun altitude
Rises 19:57:47 0° 186° (S) 3,280 5.0 -11.9°
Reaches altitude 10° 20:00:16 10° 194° (SSW) 2,339 4.4 -12.2°
Maximum altitude 20:05:05 39° 263° (W) 1,140 3.4 -12.9°
Drops below altitude 10° 20:09:49 10° 332° (NNW) 2,295 5.4 -13.5°
Sets 20:12:15 0° 340° (NNW) 3,212 6.1 -13.8°
